Regional Weather Roundup
Issued by NWS Huntsville, AL

Home | Current Version | Previous Version | Text Only | Print | Product List | Glossary On
Versions: 1 2 3 4 5 6 7 8 9 10 11 12 13 14 15 16 17 18 19 20 21 22 23 24 25 26
000
ASUS44 KHUN 131710
RWRHUN

WEATHER ROUNDUP FOR THE TENNESSEE VALLEY
NATIONAL WEATHER SERVICE HUNTSVILLE AL
1100 AM CST WED DEC 13 2017

ALZ001>004-131800-
NORTHWEST ALABAMA

CITY           SKY/WX    TMP DP  RH WIND       PRES   REMARKS
COURTLAND HCN    N/A     43 N/A N/A SW12        N/A
RUSSELLVILLE     N/A     45 N/A N/A MISG        N/A
SHOALS AIRPORT SUNNY     46  16  30 SW14      30.01F
SHOALS TVA RES   N/A     45 N/A N/A MISG        N/A
$$

ALZ005>007-016-131800-
NORTH CENTRAL ALABAMA

CITY           SKY/WX    TMP DP  RH WIND       PRES   REMARKS
CULLMAN AG STN   N/A     41 N/A N/A SW5         N/A
DECATUR AP     SUNNY     44  17  33 S13       30.02F
HUNTSVILLE AP  SUNNY     44  18  35 S10       30.01F
MERIDIANVILLE  SUNNY     41  10  28 SW12      30.01F
REDSTONE ARSN  SUNNY     42  15  33 SW12      30.00F
VINEMONT AP    FAIR      42  13  31 S12       30.04F
$$

ALZ008>010-131800-
NORTHEAST ALABAMA

CITY           SKY/WX    TMP DP  RH WIND       PRES   REMARKS
ALBERTVILLE    SUNNY     41  21  45 SW8       30.01F
FORT PAYNE     SUNNY     37   7  28 SW3       30.02F
SCOTTSBORO AP  SUNNY     41  10  28 SW9G16    30.03F
SCOTTSBORO HCN   N/A     39 N/A N/A MISG        N/A
VALLEY HEAD      N/A     39 N/A N/A MISG        N/A
$$

TNZ076-096-097-131800-
SOUTHEASTERN MIDDLE TENNESSEE

CITY           SKY/WX    TMP DP  RH WIND       PRES   REMARKS
TULLAHOMA      SUNNY     39  10  30 S13       29.95F WCI  32
WINCHESTER     SUNNY     41   9  26 S9        29.98F
$$

...SURROUNDING SITES...

CITY           SKY/WX    TMP DP  RH WIND       PRES   REMARKS
ATLANTA        SUNNY     40  12  32 W9        30.05F WCI  34
ANNISTON       SUNNY     43  13  29 SW3       30.07F
BIRMINGHAM     SUNNY     45  12  26 SW9       30.09F
CHATTANOOGA    SUNNY     38   8  29 S7        30.01F WCI  33
CORINTH        FAIR      48  18  29 S13G23    29.97F
DALTON         SUNNY     37  12  35 CALM      30.05F
GADSDEN        SUNNY     42  14  32 S7        30.06F
GOLDEN TRNGL   SUNNY     49  23  36 S10         N/A
HALEYVILLE     FAIR      43  18  36 S13       30.03F
JACKSON TN     SUNNY     48  19  31 SW18G25   29.92F
MEMPHIS        SUNNY     49  19  30 S18G28    29.93F
NASHVILLE      MOSUNNY   42  12  29 S14G20    29.93F
OXFORD MS      FAIR      46  19  34 SW9G18    30.01F
ROME           SUNNY     40  13  33 S9        30.04F WCI  34
SAVANNAH       SUNNY     46  19  34 SW16G24   29.95F
SELMER         SUNNY     45  18  33 SW9G22    29.94F
TUPELO         SUNNY     49  18  29 S13       30.02F
TUSCALOOSA     SUNNY     47  24  40 SW8       30.10F
$$

...GULF COAST WEATHER...

CITY           SKY/WX    TMP DP  RH WIND       PRES   REMARKS
GULFPORT       SUNNY     53  36  52 S6        30.16F
PASCAGOULA     SUNNY     53  29  39 SE6       30.16F
MOBILE         MOSUNNY   52  27  38 S6        30.15F
GULF SHORES    SUNNY     51  33  49 S9        30.17S
PENSACOLA      MOSUNNY   49  28  44 S5        30.16F
DESTIN         SUNNY     54  26  34 VRB3      30.15F
PANAMA CITY    SUNNY     52  27  38 NE5       30.14F
APPALACHICOLA  SUNNY     57  27  31 N7        30.14F
$$





USA.gov is the U.S. government's official web portal to all federal, state and local government web resources and services.